TimeMST,TemperatureF,Dew PointF,Humidity,Sea Level PressureIn,VisibilityMPH,Wind Direction,Wind SpeedMPH,Gust SpeedMPH,PrecipitationIn,Events,Conditions,WindDirDegrees,DateUTC
12:05 AM,14.0,-9999,N/A,29.62,10.0,SSW,12.7,-,N/A,,Mostly Cloudy,210,2012-12-18 07:05:00
12:25 AM,14.0,-9999,N/A,29.62,10.0,SSW,10.4,-,N/A,,Mostly Cloudy,210,2012-12-18 07:25:00
12:45 AM,14.0,-9999,N/A,29.63,10.0,SSW,11.5,-,N/A,,Overcast,200,2012-12-18 07:45:00
1:05 AM,12.2,-9999,N/A,29.63,10.0,SSW,11.5,-,N/A,,Overcast,210,2012-12-18 08:05:00
1:25 AM,14.0,-9999,N/A,29.63,10.0,SSW,13.8,-,N/A,,Overcast,210,2012-12-18 08:25:00
1:45 AM,14.0,-9999,N/A,29.64,10.0,SSW,11.5,-,N/A,,Mostly Cloudy,210,2012-12-18 08:45:00
2:05 AM,14.0,-9999,N/A,29.64,10.0,SSW,12.7,-,N/A,,Overcast,210,2012-12-18 09:05:00
2:25 AM,14.0,-9999,N/A,29.64,10.0,SSW,10.4,-,N/A,,Overcast,210,2012-12-18 09:25:00
2:45 AM,12.2,-9999,N/A,29.65,10.0,SW,6.9,-,N/A,,Mostly Cloudy,220,2012-12-18 09:45:00
3:05 AM,14.0,-9999,N/A,29.65,10.0,SW,3.5,-,N/A,,Overcast,230,2012-12-18 10:05:00
3:25 AM,12.2,-9999,N/A,29.65,10.0,WSW,5.8,-,N/A,,Overcast,240,2012-12-18 10:25:00
3:45 AM,12.2,-9999,N/A,29.65,10.0,SW,3.5,-,N/A,,Overcast,230,2012-12-18 10:45:00
4:05 AM,8.6,-9999,N/A,29.66,10.0,South,6.9,-,N/A,,Mostly Cloudy,190,2012-12-18 11:05:00
4:25 AM,10.4,-9999,N/A,29.66,10.0,SW,4.6,-,N/A,,Overcast,220,2012-12-18 11:25:00
4:45 AM,10.4,-9999,N/A,29.67,10.0,Calm,Calm,-,N/A,,Overcast,0,2012-12-18 11:45:00
5:25 AM,10.4,-9999,N/A,29.67,10.0,SSW,9.2,-,N/A,,Overcast,210,2012-12-18 12:25:00
5:45 AM,10.4,-9999,N/A,29.67,10.0,SSW,10.4,-,N/A,,Overcast,210,2012-12-18 12:45:00
6:05 AM,10.4,-9999,N/A,29.67,10.0,SSW,9.2,-,N/A,,Overcast,210,2012-12-18 13:05:00
6:25 AM,8.6,-9999,N/A,29.68,10.0,SSW,9.2,-,N/A,,Overcast,210,2012-12-18 13:25:00
6:45 AM,8.6,-9999,N/A,29.68,10.0,SSW,11.5,-,N/A,,Scattered Clouds,210,2012-12-18 13:45:00
7:05 AM,8.6,-9999,N/A,29.69,10.0,SSW,9.2,16.1,N/A,,Scattered Clouds,210,2012-12-18 14:05:00
7:25 AM,8.6,-9999,N/A,29.69,10.0,SSW,11.5,-,N/A,,Partly Cloudy,200,2012-12-18 14:25:00
7:45 AM,8.6,-9999,N/A,29.69,10.0,SW,8.1,-,N/A,,Clear,220,2012-12-18 14:45:00
8:05 AM,8.6,-9999,N/A,29.70,10.0,SSW,3.5,-,N/A,,Partly Cloudy,210,2012-12-18 15:05:00
8:25 AM,5.0,-9999,N/A,29.71,10.0,NE,5.8,-,N/A,,Partly Cloudy,40,2012-12-18 15:25:00
8:45 AM,8.6,-9999,N/A,29.71,10.0,Calm,Calm,-,N/A,,Clear,0,2012-12-18 15:45:00
9:05 AM,5.0,-9999,N/A,29.71,10.0,Calm,Calm,-,N/A,,Clear,0,2012-12-18 16:05:00
9:25 AM,10.4,-9999,N/A,29.72,10.0,Calm,Calm,-,N/A,,Clear,0,2012-12-18 16:25:00
9:45 AM,10.4,-9999,N/A,29.72,10.0,SSW,8.1,-,N/A,,Clear,200,2012-12-18 16:45:00
10:05 AM,10.4,-9999,N/A,29.72,10.0,SW,11.5,-,N/A,,Clear,220,2012-12-18 17:05:00
10:25 AM,12.2,-9999,N/A,29.72,10.0,SSW,11.5,-,N/A,,Clear,210,2012-12-18 17:25:00
10:45 AM,14.0,-9999,N/A,29.72,10.0,SW,9.2,-,N/A,,Clear,220,2012-12-18 17:45:00
11:05 AM,14.0,-9999,N/A,29.71,10.0,SSW,12.7,-,N/A,,Clear,200,2012-12-18 18:05:00
11:25 AM,15.8,-9999,N/A,29.71,10.0,SW,9.2,-,N/A,,Clear,220,2012-12-18 18:25:00
11:45 AM,15.8,-9999,N/A,29.71,10.0,SW,11.5,-,N/A,,Clear,220,2012-12-18 18:45:00
12:05 PM,15.8,-9999,N/A,29.70,10.0,SW,11.5,-,N/A,,Clear,220,2012-12-18 19:05:00
12:25 PM,15.8,-9999,N/A,29.70,10.0,SW,11.5,18.4,N/A,,Clear,230,2012-12-18 19:25:00
12:45 PM,15.8,-9999,N/A,29.69,10.0,SW,11.5,-,N/A,,Clear,230,2012-12-18 19:45:00
1:05 PM,15.8,-9999,N/A,29.69,10.0,SW,11.5,-,N/A,,Clear,220,2012-12-18 20:05:00
1:25 PM,15.8,-9999,N/A,29.69,10.0,SW,12.7,16.1,N/A,,Clear,230,2012-12-18 20:25:00
1:45 PM,15.8,-9999,N/A,29.69,10.0,SW,11.5,18.4,N/A,,Clear,230,2012-12-18 20:45:00
2:05 PM,15.8,-9999,N/A,29.69,10.0,SW,12.7,18.4,N/A,,Partly Cloudy,220,2012-12-18 21:05:00
2:25 PM,15.8,-9999,N/A,29.69,10.0,SW,10.4,18.4,N/A,,Mostly Cloudy,220,2012-12-18 21:25:00
2:45 PM,15.8,-9999,N/A,29.69,10.0,SW,12.7,16.1,N/A,,Mostly Cloudy,220,2012-12-18 21:45:00
3:05 PM,15.8,-9999,N/A,29.68,10.0,SW,8.1,-,N/A,,Partly Cloudy,220,2012-12-18 22:05:00
3:25 PM,14.0,-9999,N/A,29.69,10.0,SSW,11.5,-,N/A,,Clear,210,2012-12-18 22:25:00
3:45 PM,14.0,-9999,N/A,29.69,10.0,SSW,10.4,-,N/A,,Clear,210,2012-12-18 22:45:00
4:05 PM,14.0,-9999,N/A,29.69,10.0,SW,8.1,-,N/A,,Scattered Clouds,230,2012-12-18 23:05:00
4:25 PM,12.2,-9999,N/A,29.70,10.0,SW,4.6,-,N/A,,Mostly Cloudy,220,2012-12-18 23:25:00
4:45 PM,10.4,-9999,N/A,29.70,10.0,WSW,5.8,-,N/A,,Partly Cloudy,240,2012-12-18 23:45:00
5:05 PM,10.4,-9999,N/A,29.71,10.0,SSW,5.8,-,N/A,,Mostly Cloudy,210,2012-12-19 00:05:00
5:25 PM,8.6,-9999,N/A,29.71,10.0,SSW,5.8,-,N/A,,Overcast,210,2012-12-19 00:25:00
5:45 PM,8.6,-9999,N/A,29.72,10.0,SSW,6.9,-,N/A,,Mostly Cloudy,200,2012-12-19 00:45:00
6:05 PM,6.8,-9999,N/A,29.72,10.0,SSW,8.1,-,N/A,,Overcast,210,2012-12-19 01:05:00
6:25 PM,6.8,-9999,N/A,29.73,10.0,SSW,9.2,-,N/A,,Mostly Cloudy,210,2012-12-19 01:25:00
6:45 PM,6.8,-9999,N/A,29.73,10.0,SW,6.9,-,N/A,,Mostly Cloudy,220,2012-12-19 01:45:00
7:05 PM,6.8,-9999,N/A,29.73,10.0,SW,8.1,-,N/A,,Mostly Cloudy,220,2012-12-19 02:05:00
7:25 PM,6.8,-9999,N/A,29.72,10.0,SW,10.4,-,N/A,,Scattered Clouds,220,2012-12-19 02:25:00
7:45 PM,5.0,-9999,N/A,29.73,10.0,SSW,6.9,-,N/A,,Partly Cloudy,200,2012-12-19 02:45:00
8:05 PM,1.4,-9999,N/A,29.74,10.0,Calm,Calm,-,N/A,,Clear,0,2012-12-19 03:05:00
8:25 PM,-0.4,-9999,N/A,29.75,10.0,NNE,3.5,-,N/A,,Clear,30,2012-12-19 03:25:00
8:45 PM,-2.2,-9999,N/A,29.76,10.0,SSW,3.5,-,N/A,,Clear,200,2012-12-19 03:45:00
9:05 PM,-4.0,-9999,N/A,29.76,10.0,WSW,4.6,-,N/A,,Clear,250,2012-12-19 04:05:00
9:25 PM,-4.0,-9999,N/A,29.76,10.0,NNW,4.6,-,N/A,,Clear,330,2012-12-19 04:25:00
9:45 PM,-7.6,-9999,N/A,29.76,10.0,Calm,Calm,-,N/A,,Clear,0,2012-12-19 04:45:00
10:05 PM,-9.4,-9999,N/A,29.77,10.0,Calm,Calm,-,N/A,,Clear,0,2012-12-19 05:05:00
10:25 PM,-9.4,-9999,N/A,29.77,10.0,Calm,Calm,-,N/A,,Clear,0,2012-12-19 05:25:00
10:45 PM,-11.2,-9999,N/A,29.78,10.0,South,4.6,-,N/A,,Clear,180,2012-12-19 05:45:00
11:05 PM,-16.6,-9999,N/A,29.78,10.0,Calm,Calm,-,N/A,,Clear,0,2012-12-19 06:05:00
11:25 PM,-16.6,-9999,N/A,29.79,10.0,South,3.5,-,N/A,,Clear,170,2012-12-19 06:25:00
11:45 PM,-16.6,-9999,N/A,29.80,10.0,Calm,Calm,-,N/A,,Clear,0,2012-12-19 06:45:00